sat.trackr.live / text

‹ back to catalog

EUTELSAT 53A

NORAD 40277 · 2014-064A

PAYLOAD ACTIVE UNKNOWN

§ Identity

Operator
Country
EUTE
Launch date
2014-10-21
Launch site
TYMSC
Launch vehicle
Mass (kg)
RCS (m²)
22.59

Purposes: comms

External: N2YO · Heavens-Above · Gunter

§ Orbital elements

Epoch: 2026-09-20T03:29:11.663232Z

Period
1,436.07 min
Inclination
0.0159°
Eccentricity
0.0001994
Mean motion
1.00274009 rev/d
Perigee alt
35,777.6 km
Apogee alt
35,794.4 km
Semi-major
42,164.1 km
B*
0.0000e+0
RAAN
179.9313°
Arg perigee
4.0883°
Mean anomaly
280.3374°
Rev number
4,252

§ Raw data

EUTELSAT 53A1 40277U 14064A   26263.14527388  .00000093  00000+0  00000+0 0  99922 40277   0.0159 179.9313 0001994   4.0883 280.3374  1.00274009 42529

JSON: /api/v1/satellites/40277 · /tle

For live sub-satellite position, see the globe view (requires WebGL).

§ Visibility from observer

Set your observer location to see the next 7 days of passes ≥ 10°. The values pass through the URL so the page stays shareable.

No JS? Fill the form by hand. The geolocation button needs JavaScript.